Weather in Kamakura

Japan     35°19′00″N   139°31′21″E
temp.,
°C
wind,
m/s
gust,
m/s
humid.,
%
clouds,
%
prec.,
mm/h
press.,
hPa
HPBL,
m
27 november, sat
sat2700:00+14nw23496 0.0 1015702
03:00+14ne545140 0.0 1015774
06:00+13n244041 0.1 10181020
09:00+12nne884240 0.3 10201198
12:00+13nne43368 0.0 10201409
15:00+13n5534100 0.0 10222179
18:00+12nw4638100 0.0 10231343
21:00+12n383426 0.1 10261979
28 november, sun
sun2800:00+11n67390 0.0 1027810
03:00+10n56400 0.0 1028569
06:00+10nnw45390 0.0 1029469
09:00+11n45350 0.0 1031537
12:00+13nnw45270 0.0 10301335
15:00+13w12250 0.0 10301396
18:00+13nnw23260 0.0 10311488
21:00+12ne44380 0.0 10321181
29 november, mon
mon2900:00+12nne33410 0.0 1032879
03:00+11n43475 0.0 1032644
06:00+10n32485 0.0 1032431
09:00+10nne224985 0.0 1032385
12:00+11wsw2351100 0.0 1029350
15:00+15sw595273 0.0 10281711
18:00+15wsw785974 0.0 10281397
21:00+14wsw475784 0.0 10291100
30 november, tue
tue3000:00+14w355877 0.0 1028720
03:00+14w345997 0.1 1027569
06:00+12nw236010 0.1 1026324
09:00+12w1359100 0.1 1026324
12:00+17ssw9105482 0.1 10231928
15:00+17ssw10125585 0.1 10211997
18:00+18ssw8115690 0.0 10201744
21:00+18ssw101268100 0.8 10171276
1 december, wed
wed100:00+17ssw141983100 4.4 10131515
03:00+19ssw172173100 7.2 10091680
06:00+18s192692100 10.0 10031684
09:00+18sw111570100 26.8 10011103
12:00+17sw1724480 0.0 10001453
15:00+16sw1820410 0.0 1000899
18:00+15w66450 0.0 1002753
21:00+15ene35412 0.0 1005877